Wetbulb
47.01 46.73 47.22 47.02 47.44 48.00 48.26 48.71 50.01 51.48 50.45 49.63 49.72 51.10 51.26 50.54 50.10 49.68 49.60 48.82 47.88 47.94 48.37 47.53 47.73 48.82 49.11 50.35 51.61 51.23 51.08 51.77 51.10 50.29 51.67 52.68 52.78 52.55 53.27 52.66 52.16 51.70 51.61
47.34 47.51 47.04 46.91 47.59 48.33 49.28 49.78 51.57 50.27 50.12 49.25 50.01 50.38 49.77 49.38 49.29 48.55 47.78 47.83 47.41 47.16 47.70 47.51 47.66 48.49 48.64 49.09 50.30 50.19 49.34 50.26 50.90 48.71 50.00 50.40 51.48 51.71 51.06 50.34 51.67 51.84 50.86
47.17 47.65 47.39 47.22 48.01 49.32 50.54 49.55 49.42 48.92 48.76 48.55 47.93 47.69 47.79 47.98 47.62 47.35 46.71 46.57 46.41 47.07 47.64 48.00 48.23 48.59 48.22 48.40 47.89 48.67 49.87 49.41 51.05 49.38 48.23 50.52 49.87 51.35 49.85 50.29 50.26 50.02 51.14
46.42 47.76 47.17 47.76 48.64 48.33 48.26 48.15 47.84 48.18 47.05 46.37 45.88 45.90 46.16 46.75 47.23 46.30 45.91 45.55 45.92 46.45 46.80 47.74 48.62 48.90 48.45 49.33 48.13 48.49 49.49 49.56 49.69 49.23 48.66 48.10 48.67 49.74 49.48 47.18 47.97 48.51 47.18
46.11 47.40 47.25 49.22 48.20 47.50 46.76 46.48 46.46 46.19 45.96 45.98 45.64 45.71 45.75 46.15 47.05 46.65 45.69 45.40 45.17 45.93 46.71 47.46 48.53 50.12 50.17 51.00 48.20 49.19 49.59 49.05 48.62 48.15 47.41 47.39 47.07 47.61 46.47 47.90 45.86 44.95 45.44
47.03 47.37 49.06 47.31 46.53 45.87 45.26 45.04 45.04 44.91 45.00 45.27 44.98 45.16 44.64 46.06 45.16 46.59 47.84 45.84 46.30 46.04 45.91 47.12 48.20 50.02 49.48 49.22 49.05 48.84 48.73 48.32 46.80 46.20 46.14 45.96 46.92 48.32 48.26 46.06 44.79 43.76 42.07
47.28 47.79 46.39 45.86 44.78 44.63 44.92 44.66 44.24 44.21 44.74 44.40 44.21 44.34 44.21 44.50 44.51 45.04 47.21 46.20 45.93 45.75 45.86 46.42 46.89 47.64 47.21 45.93 46.22 45.91 45.91 46.43 46.53 45.30 44.12 43.72 44.88 46.87 47.48 45.84 45.68 45.41 42.92
45.90 45.32 45.07 44.36 43.93 44.47 44.16 43.90 44.20 44.60 44.33 44.08 43.93 43.26 43.23 44.42 44.35 44.39 45.99 46.66 45.95 45.56 46.10 46.92 46.60 45.87 45.95 45.21 44.22 43.37 43.20 43.53 43.48 43.65 42.64 43.48 44.87 47.75 48.62 48.29 45.46 43.46 44.87
44.05 43.62 43.71 43.90 43.37 43.74 43.37 43.82 43.83 43.89 44.13 44.55 44.50 44.07 44.25 45.60 43.22 43.57 45.20 45.52 45.33 45.12 46.30 46.89 46.87 45.68 44.12 44.28 45.20 43.55 42.32 42.42 44.05 44.23 43.77 43.24 43.10 44.38 47.30 47.19 43.76 43.11 42.34
43.16 43.61 44.12 44.06 43.51 43.34 44.12 43.78 44.80 44.34 44.28 44.99 45.05 45.07 45.52 45.05 42.59 42.38 44.83 45.98 44.92 44.80 46.16 45.70 44.84 45.41 43.19 43.40 44.89 43.23 40.90 41.02 41.59 42.96 43.90 43.40 44.30 44.89 45.72 47.28 46.13 42.58 43.03
44.50 44.55 44.70 44.30 43.95 44.80 45.17 45.72 45.94 45.44 46.00 45.35 44.93 44.68 45.46 45.28 44.90 42.57 43.56 47.09 46.19 45.00 44.28 43.54 43.74 41.53 41.79 41.79 42.95 43.38 41.49 42.73 42.10 42.41 41.82 42.21 43.16 43.55 43.42 43.88 44.30 44.63 42.80
44.65 44.43 43.87 43.62 44.23 44.90 45.32 44.16 45.13 44.87 43.36 43.45 43.78 43.73 44.11 45.35 44.25 43.36 42.81 43.31 45.50 44.86 43.50 43.48 42.83 40.25 40.22 40.79 42.12 39.99 40.60 42.96 42.58 41.21 40.64 40.11 40.52 41.27 42.37 43.00 43.83 43.93 44.00
43.31 42.16 41.85 42.51 42.67 42.65 42.35 41.96 41.61 42.98 43.47 43.23 43.12 41.86 41.99 43.19 44.54 43.56 42.95 43.55 44.29 44.98 44.20 42.56 41.23 40.66 40.98 42.04 41.07 41.13 41.97 42.56 41.28 40.12 39.58 39.93 40.93 41.96 42.94 42.91 43.54 42.98 42.59
42.16 41.54 41.80 40.21 41.07 41.36 40.61 39.87 39.42 39.89 40.18 41.52 41.94 42.80 42.63 43.24 42.64 44.46 46.48 46.34 45.13 45.37 45.02 43.76 42.55 41.89 41.91 42.72 43.15 43.07 43.19 42.40 41.40 40.41 40.32 41.00 41.97 41.66 41.68 43.09 40.98 41.52 40.45
40.65 41.16 40.67 40.61 39.93 39.58 39.82 38.88 39.06 38.82 38.27 40.26 41.33 42.36 43.24 42.59 41.48 40.17 42.78 44.54 44.93 43.06 43.58 44.11 43.38 43.02 41.90 41.73 41.80 41.88 41.75 41.54 40.34 40.49 40.72 40.63 40.78 41.03 40.80 41.80 41.55 41.19 39.16
40.04 39.05 39.10 38.58 38.84 38.76 38.59 40.16 39.49 39.12 38.98 38.11 39.55 41.95 42.15 39.62 39.75 39.81 39.32 38.89 38.96 39.94 43.15 42.01 41.20 40.77 40.23 40.33 40.07 40.32 40.79 41.00 41.45 41.22 40.83 40.65 39.98 39.93 39.98 40.78 41.55 40.92 39.45
39.78 39.38 39.44 40.70 40.25 38.41 38.24 38.38 38.96 42.33 40.40 39.12 38.34 38.24 38.32 38.60 38.92 39.68 39.68 40.38 39.53 41.40 42.22 41.24 40.45 40.20 40.25 40.30 40.14 39.81 39.98 41.45 42.05 41.15 40.81 40.52 40.51 40.53 40.64 40.67 40.96 40.80 39.91
42.56 42.32 43.81 42.80 40.35 37.68 38.28 38.69 39.80 40.82 41.30 42.34 41.81 40.18 39.03 38.74 38.84 39.57 39.94 42.19 42.83 42.16 42.21 41.15 41.09 41.54 40.88 40.15 40.32 40.63 41.19 41.20 40.83 40.78 40.74 40.68 40.82 40.37 40.07 39.99 40.29 40.32 39.55
44.65 44.64 44.37 40.07 37.76 37.98 39.54 41.12 41.59 41.69 42.00 41.59 42.59 42.12 42.28 40.02 39.79 40.61 41.50 44.37 42.66 42.59 42.78 42.64 42.86 42.54 41.96 41.79 41.70 41.92 41.35 40.79 40.97 41.13 40.82 40.77 41.03 40.72 39.75 39.88 39.45 37.83 38.76
41.12 39.81 38.01 38.18 38.56 39.06 40.31 40.43 41.04 41.36 40.82 41.01 40.29 40.79 43.17 42.46 42.27 42.68 43.51 43.46 43.51 43.94 44.42 44.34 44.89 45.28 45.15 43.80 42.76 42.35 42.10 41.31 41.86 41.72 41.13 41.76 41.68 41.13 40.09 40.38 40.43 40.10 39.98
37.69 37.82 36.27 38.49 38.53 38.95 39.71 39.27 39.84 40.44 40.17 40.36 40.26 38.64 34.22 41.69 41.08 41.02 41.28 41.46 41.71 41.79 42.48 43.48 43.49 43.28 44.00 44.69 43.16 42.64 42.07 41.94 42.75 41.97 42.00 41.66 42.00 41.05 41.46 41.12 41.65 40.66 40.45
38.27 38.08 38.32 37.88 38.50 39.03 39.01 39.36 39.59 39.45 39.47 39.18 39.32 39.44 35.00 40.23 39.97 39.63 39.88 40.66 41.02 41.38 41.89 42.68 43.34 42.85 43.05 43.61 42.89 42.27 42.26 41.97 42.49 42.75 42.54 42.00 41.93 42.01 42.24 41.11 41.04 40.75 40.85
39.34 39.01 38.36 37.89 38.19 37.41 38.67 38.44 37.82 37.79 37.51 37.91 37.80 38.15 37.80 37.82 37.92 38.03 38.67 39.37 40.25 40.62 40.88 41.61 42.46 43.23 43.84 44.32 44.01 43.21 42.46 42.40 42.64 43.30 43.35 42.88 42.93 42.31 42.04 40.91 41.39 40.26 40.08
39.22 38.45 37.93 37.55 37.61 37.64 37.29 36.70 36.74 35.01 36.62 36.83 36.85 36.51 36.67 37.11 37.30 37.46 38.30 38.67 39.66 40.09 40.81 40.74 40.84 40.62 41.64 42.45 43.53 44.53 44.67 45.98 46.11 44.56 44.61 43.45 42.99 42.19 42.71 41.94 42.04 42.15 42.19
38.82 38.38 37.90 37.03 36.52 35.81 36.04 35.43 35.77 36.06 36.17 36.12 36.05 36.21 36.72 37.19 37.27 37.63 38.28 39.06 39.35 39.52 39.51 40.88 41.36 41.34 40.95 40.73 40.90 40.51 35.19 35.06 41.69 39.02 45.08 45.37 43.96 43.77 42.98 43.27 43.93 43.93 43.34
39.28 38.41 37.53 37.08 36.54 35.94 35.41 35.03 34.60 34.90 35.00 35.30 35.56 35.86 36.23 36.36 36.81 37.42 38.08 38.90 39.11 39.47 40.20 40.53 41.59 42.18 42.03 41.48 40.14 35.34 34.56 34.91 38.40 35.99 43.46 43.69 44.10 44.34 44.20 44.56 44.41 44.13 44.38
MSLP
1016.39 1016.01 1015.51 1014.81 1014.22 1013.67 1013.26 1012.65 1012.03 1011.62 1011.47 1011.42 1011.10 1010.66 1010.29 1010.06 1009.88 1009.94 1009.70 1009.44 1009.27 1009.00 1009.08 1009.03 1008.99 1008.81 1008.88 1008.51 1008.32 1008.38 1008.26 1008.25 1008.19 1008.51 1008.61 1008.83 1008.97 1009.08 1009.63 1010.02 1010.22 1010.64 1010.78
1016.10 1015.67 1014.98 1014.37 1013.78 1013.15 1012.71 1012.16 1011.82 1011.53 1011.42 1011.35 1010.99 1010.68 1010.58 1010.36 1010.21 1010.08 1010.07 1009.93 1009.76 1009.43 1009.38 1009.20 1008.97 1009.05 1008.75 1008.36 1008.37 1008.30 1008.20 1007.91 1007.89 1008.18 1008.47 1008.80 1009.11 1009.56 1010.02 1010.49 1010.71 1010.94 1011.18
1015.87 1015.26 1014.57 1014.04 1013.42 1012.72 1012.37 1012.19 1012.00 1011.77 1011.70 1011.46 1011.15 1011.08 1010.92 1010.69 1010.53 1010.39 1010.42 1010.25 1010.10 1009.73 1009.34 1009.17 1009.20 1009.01 1008.52 1008.33 1008.40 1008.19 1007.96 1007.67 1007.69 1007.92 1008.27 1008.63 1009.29 1009.68 1010.32 1010.73 1011.10 1011.59 1011.89
1015.54 1014.93 1014.45 1014.07 1013.68 1013.28 1012.92 1012.66 1012.43 1012.22 1012.07 1012.00 1011.68 1011.57 1011.36 1011.11 1010.92 1010.77 1010.67 1010.19 1010.13 1009.98 1009.73 1009.52 1009.15 1008.72 1008.65 1008.50 1008.41 1008.24 1008.03 1007.68 1007.56 1007.80 1008.09 1008.53 1009.09 1009.74 1010.22 1010.71 1011.31 1012.08 1012.46
1015.41 1014.79 1014.33 1013.90 1013.95 1013.62 1013.40 1013.13 1013.00 1012.71 1012.57 1012.32 1012.03 1011.87 1011.75 1011.46 1011.23 1010.97 1010.84 1010.53 1010.28 1009.96 1009.69 1009.28 1008.98 1008.75 1008.86 1008.69 1008.59 1008.52 1008.23 1007.79 1007.74 1007.96 1008.22 1008.61 1009.11 1009.63 1010.16 1010.97 1011.69 1012.55 1013.13
1015.31 1014.79 1014.17 1014.28 1014.20 1014.07 1013.93 1013.68 1013.42 1013.19 1012.91 1012.59 1012.37 1012.24 1012.04 1011.78 1011.51 1011.25 1010.95 1010.81 1010.61 1010.21 1009.89 1009.48 1009.26 1009.35 1009.35 1009.42 1009.35 1008.93 1008.72 1008.38 1008.29 1008.28 1008.51 1008.80 1009.35 1009.68 1010.21 1011.07 1011.83 1012.66 1013.13
1015.27 1014.88 1014.78 1014.70 1014.58 1014.49 1014.35 1014.05 1013.75 1013.44 1013.16 1012.94 1012.78 1012.58 1012.33 1012.01 1011.73 1011.40 1010.97 1010.71 1010.61 1010.47 1010.34 1010.21 1010.17 1010.24 1010.33 1010.23 1009.87 1009.65 1009.56 1009.42 1009.31 1008.95 1009.03 1009.39 1009.75 1010.01 1010.35 1011.33 1012.00 1012.45 1013.11
1015.57 1015.36 1015.17 1015.10 1015.03 1014.84 1014.60 1014.33 1014.07 1013.77 1013.48 1013.24 1013.00 1012.81 1012.57 1012.24 1011.80 1011.43 1011.17 1011.03 1010.93 1010.89 1010.85 1010.77 1010.73 1010.79 1010.75 1010.57 1010.49 1010.42 1010.57 1010.45 1010.33 1010.13 1010.02 1010.05 1010.13 1010.21 1010.52 1011.09 1012.03 1012.85 1013.38
1015.97 1015.84 1015.75 1015.57 1015.42 1015.11 1014.85 1014.57 1014.26 1013.92 1013.56 1013.32 1013.18 1012.92 1012.59 1012.27 1011.77 1011.67 1011.49 1011.43 1011.36 1011.29 1011.26 1011.19 1011.20 1011.22 1011.27 1011.14 1010.84 1010.94 1011.14 1011.27 1011.27 1010.97 1010.70 1010.44 1010.45 1010.57 1010.87 1011.45 1012.38 1012.91 1013.37
1016.54 1016.41 1016.22 1015.96 1015.74 1015.42 1015.09 1014.69 1014.37 1014.09 1013.82 1013.54 1013.29 1013.11 1012.94 1012.66 1012.34 1012.03 1011.89 1011.86 1011.74 1011.75 1011.60 1011.63 1011.63 1011.55 1011.53 1011.40 1011.29 1011.46 1011.62 1012.03 1011.79 1011.49 1011.29 1011.22 1011.13 1011.47 1011.48 1011.71 1012.21 1012.67 1013.21
1017.01 1016.76 1016.55 1016.30 1015.98 1015.61 1015.23 1014.89 1014.56 1014.36 1014.08 1013.93 1013.70 1013.55 1013.45 1013.27 1013.01 1012.65 1012.48 1012.32 1012.24 1012.16 1012.17 1012.22 1012.20 1011.87 1011.91 1011.95 1012.07 1012.12 1012.35 1012.35 1012.15 1012.01 1011.97 1011.95 1012.19 1012.26 1012.39 1012.55 1012.84 1013.01 1013.37
1017.38 1017.17 1016.92 1016.57 1016.21 1015.78 1015.48 1015.40 1015.12 1014.87 1014.68 1014.46 1014.17 1014.15 1014.01 1013.90 1013.60 1013.32 1012.99 1012.80 1012.67 1012.55 1012.77 1012.91 1012.85 1012.60 1012.64 1012.72 1012.77 1012.72 1012.55 1012.43 1012.41 1012.47 1012.64 1012.89 1013.02 1013.17 1013.39 1013.56 1013.73 1013.81 1013.82
1017.79 1017.55 1017.23 1016.83 1016.55 1016.46 1016.17 1015.97 1015.70 1015.37 1015.24 1015.06 1014.87 1014.74 1014.72 1014.49 1014.16 1013.84 1013.63 1013.43 1013.28 1013.22 1013.44 1013.60 1013.48 1013.38 1013.39 1013.34 1013.37 1013.31 1013.19 1013.16 1013.28 1013.30 1013.47 1013.66 1013.78 1013.94 1014.07 1014.19 1014.33 1014.47 1014.64
1018.10 1017.96 1017.72 1017.49 1017.28 1016.91 1016.49 1016.25 1016.08 1016.02 1015.94 1015.58 1015.39 1015.31 1015.11 1014.86 1014.71 1014.37 1014.16 1014.06 1014.03 1014.00 1014.10 1014.02 1014.03 1013.93 1013.89 1014.00 1013.89 1013.88 1013.85 1013.91 1013.94 1013.95 1014.02 1014.26 1014.43 1014.53 1014.60 1014.74 1014.79 1015.21 1015.26
1018.55 1018.47 1018.27 1017.86 1017.50 1017.21 1016.96 1016.85 1016.51 1016.60 1016.74 1016.39 1016.11 1015.94 1015.64 1015.59 1015.71 1015.31 1014.85 1014.76 1014.63 1014.62 1014.57 1014.47 1014.43 1014.43 1014.41 1014.45 1014.44 1014.45 1014.49 1014.48 1014.49 1014.59 1014.66 1014.78 1014.97 1015.13 1015.31 1015.45 1015.63 1015.68 1015.78
1018.98 1018.92 1018.84 1018.49 1018.09 1017.88 1017.54 1017.19 1017.09 1017.01 1016.76 1016.67 1016.72 1016.65 1016.49 1016.35 1016.06 1015.77 1015.53 1015.32 1015.12 1014.97 1014.83 1014.80 1014.96 1015.04 1015.07 1015.07 1015.07 1015.07 1015.08 1015.08 1015.05 1015.07 1015.17 1015.36 1015.46 1015.64 1015.81 1016.09 1016.18 1016.23 1016.61
1019.40 1019.18 1018.92 1018.70 1018.52 1018.37 1018.15 1017.99 1017.82 1017.73 1017.59 1017.64 1017.56 1017.30 1017.10 1016.83 1016.56 1016.34 1016.15 1015.88 1015.61 1015.39 1015.38 1015.38 1015.49 1015.61 1015.62 1015.66 1015.63 1015.66 1015.63 1015.62 1015.64 1015.70 1015.84 1015.98 1016.15 1016.34 1016.49 1016.75 1016.94 1017.10 1017.54
1019.49 1019.27 1019.02 1018.89 1018.78 1018.70 1018.65 1018.71 1018.59 1018.36 1018.32 1018.49 1018.40 1018.25 1017.97 1017.55 1017.22 1016.96 1016.55 1016.11 1016.13 1016.16 1016.07 1016.06 1015.97 1015.96 1016.03 1016.13 1016.18 1016.14 1016.20 1016.35 1016.43 1016.54 1016.63 1016.78 1016.90 1017.01 1017.28 1017.56 1017.83 1017.92 1018.17
1019.28 1019.13 1019.09 1019.16 1019.27 1019.22 1019.12 1019.10 1019.19 1019.25 1019.27 1019.30 1019.07 1018.87 1018.54 1018.12 1017.86 1017.69 1017.32 1017.00 1016.90 1016.75 1016.55 1016.34 1016.27 1016.28 1016.37 1016.59 1016.60 1016.68 1016.85 1017.00 1017.14 1017.28 1017.41 1017.64 1017.77 1017.80 1018.09 1018.28 1018.53 1018.63 1018.76
1019.47 1019.41 1019.44 1019.62 1019.71 1019.63 1019.60 1019.63 1019.77 1019.96 1020.09 1020.02 1019.97 1019.75 1019.35 1018.90 1018.77 1018.74 1018.10 1017.79 1017.50 1017.13 1016.77 1016.50 1016.27 1016.20 1016.38 1016.68 1017.03 1017.29 1017.42 1017.64 1017.81 1018.03 1018.24 1018.35 1018.46 1018.58 1018.79 1018.93 1019.17 1019.32 1019.62
1020.18 1020.22 1020.18 1020.25 1020.35 1020.42 1020.42 1020.51 1020.60 1020.73 1020.77 1020.80 1020.93 1020.86 1020.26 1020.00 1019.90 1019.64 1019.23 1018.90 1018.61 1018.21 1017.82 1017.44 1017.21 1017.14 1017.09 1017.22 1017.56 1017.90 1018.13 1018.35 1018.51 1018.67 1018.86 1018.94 1019.11 1019.32 1019.50 1019.64 1019.80 1020.12 1020.40
1020.91 1021.02 1020.99 1021.14 1021.35 1021.28 1021.31 1021.31 1021.34 1021.44 1021.50 1021.50 1021.58 1021.41 1021.09 1020.99 1020.81 1020.45 1020.00 1019.92 1019.56 1019.06 1018.44 1018.19 1017.95 1017.88 1017.97 1018.06 1018.28 1018.47 1018.62 1018.88 1019.05 1019.18 1019.28 1019.54 1019.70 1019.89 1020.02 1020.27 1020.46 1020.78 1021.07
1021.55 1021.72 1021.92 1022.08 1022.12 1022.08 1022.11 1022.21 1022.29 1022.38 1022.28 1022.41 1022.49 1022.32 1022.06 1021.91 1021.52 1021.25 1021.05 1020.80 1020.31 1019.69 1019.51 1018.99 1018.90 1018.78 1018.62 1018.66 1018.75 1018.91 1019.02 1019.23 1019.44 1019.45 1019.64 1019.89 1020.13 1020.34 1020.54 1020.69 1020.87 1021.26 1021.60
1022.17 1022.47 1022.68 1022.90 1022.97 1022.97 1023.01 1023.19 1023.21 1023.28 1023.09 1022.92 1023.02 1023.16 1022.98 1022.77 1022.42 1022.13 1021.71 1021.42 1021.08 1020.69 1020.36 1020.15 1020.01 1019.80 1019.69 1019.58 1019.50 1019.51 1019.60 1019.70 1019.80 1019.97 1020.05 1020.34 1020.59 1020.86 1021.02 1021.29 1021.60 1021.93 1022.23
1023.00 1023.29 1023.53 1023.69 1023.85 1023.97 1024.03 1024.13 1024.22 1024.20 1024.10 1024.01 1023.88 1023.75 1023.62 1023.35 1023.08 1022.83 1022.56 1022.23 1021.94 1021.62 1021.46 1021.16 1021.04 1020.94 1020.83 1020.81 1020.84 1020.84 1020.85 1020.81 1020.73 1020.76 1020.78 1020.84 1021.21 1021.50 1021.71 1021.95 1022.22 1022.56 1022.80
1023.79 1024.03 1024.32 1024.52 1024.72 1024.89 1025.01 1025.10 1025.26 1025.22 1025.11 1025.01 1024.87 1024.71 1024.54 1024.36 1024.17 1023.84 1023.54 1023.25 1023.06 1022.91 1022.64 1022.43 1022.22 1021.99 1021.91 1022.03 1022.03 1021.86 1021.76 1021.73 1021.76 1021.74 1021.65 1021.87 1022.08 1022.38 1022.64 1022.90 1023.19 1023.42 1023.65
Wind_Speed
11 9 10 11 12 11 9 9 9 5 5 7 7 7 6 6 6 5 4 6 5 5 5 4 4 3 2 2 1 1 2 2 3 1 1 2 3 8 7 7 9 7 8
12 11 11 11 11 11 10 10 5 5 4 5 6 5 6 7 6 6 6 6 6 6 5 4 6 4 4 3 2 2 2 3 2 3 2 2 3 7 9 10 7 6 7
13 11 12 11 12 12 8 6 5 6 5 5 6 7 6 6 6 6 5 5 4 5 5 6 5 5 6 4 3 3 2 2 4 2 3 2 2 7 10 8 8 8 5
13 11 11 10 8 8 6 6 6 6 6 6 7 7 7 6 6 5 4 4 4 3 3 3 5 5 5 5 4 4 2 0 2 4 5 5 4 4 8 9 6 5 6
12 10 9 4 5 6 7 7 6 6 5 6 6 6 6 5 5 6 4 5 4 5 5 5 6 3 5 8 3 4 2 2 3 4 4 5 6 6 10 5 7 6 4
11 9 5 6 6 7 6 6 6 6 6 6 7 6 5 4 10 8 6 3 4 4 4 6 7 11 11 14 16 19 12 4 4 3 4 6 5 4 8 8 8 4 3
8 6 7 6 7 7 5 5 5 5 4 5 5 5 5 4 8 5 8 5 4 4 4 5 5 6 7 5 13 17 19 19 16 4 6 4 3 2 8 9 5 3 2
7 7 7 7 7 5 5 5 4 3 5 4 5 5 4 4 8 7 8 5 4 4 4 4 5 6 6 6 8 10 11 12 11 7 7 4 3 4 5 6 6 6 6
8 8 8 6 5 5 6 6 4 3 4 5 3 5 6 6 10 8 6 4 4 5 5 4 5 4 6 6 8 10 9 9 10 13 13 14 14 11 8 9 7 6 3
7 6 5 5 5 6 6 5 3 3 3 3 4 5 9 6 12 9 7 3 5 3 5 6 9 4 6 8 7 6 10 8 8 8 9 10 11 12 12 5 5 4 5
4 4 6 6 7 5 4 3 4 4 5 5 6 6 7 9 9 11 8 5 2 4 5 5 6 9 8 10 9 8 8 5 9 8 7 7 8 8 7 7 6 4 3
4 5 6 5 4 4 4 5 5 5 5 5 5 6 6 6 10 9 11 11 8 7 6 6 7 13 13 11 8 9 8 6 6 7 7 7 6 6 7 7 9 9 8
6 6 6 5 6 8 7 6 4 5 6 4 5 5 5 5 5 9 11 12 13 8 7 8 9 11 10 9 11 9 7 6 5 6 6 6 6 5 7 8 9 11 12
6 6 5 6 5 4 4 4 4 3 3 3 5 5 6 7 6 5 5 5 8 7 7 7 8 9 10 8 7 7 5 5 5 5 6 5 5 5 6 5 7 6 9
5 5 6 4 5 5 4 3 4 3 3 3 4 5 5 7 5 4 6 4 4 4 4 4 5 5 5 5 6 6 5 5 5 5 5 6 6 6 6 5 6 8 9
6 5 4 4 4 5 4 4 10 13 14 8 9 5 5 6 8 11 10 10 9 8 6 6 6 5 5 5 5 5 5 6 4 5 6 6 6 6 7 7 6 8 9
4 4 2 4 4 4 4 5 5 9 17 17 14 14 13 7 10 10 9 8 10 6 5 5 5 4 5 5 5 4 4 4 6 6 7 7 7 7 7 7 7 8 8
4 5 4 3 3 4 5 5 5 6 6 6 8 11 13 12 13 12 12 8 8 8 7 5 3 3 4 5 4 4 6 6 6 6 7 6 6 6 7 7 6 7 7
4 3 3 4 4 5 4 6 6 7 7 5 5 7 10 12 14 15 12 6 6 5 3 4 4 5 5 4 3 5 6 6 6 7 7 7 6 6 8 7 8 9 9
4 8 7 5 4 5 6 7 6 7 6 5 5 6 5 7 8 8 7 7 7 7 8 7 7 6 3 5 6 6 6 6 7 7 7 7 7 7 7 7 7 8 8
5 6 7 5 6 6 6 7 6 6 6 7 6 6 7 7 7 6 6 7 7 7 7 6 7 7 7 8 8 7 7 7 8 7 7 7 7 7 7 7 9 8 9
5 5 6 6 5 6 6 6 7 7 7 7 6 7 9 7 6 5 5 7 6 6 5 5 6 7 7 8 8 7 8 8 7 8 9 7 7 8 9 8 9 9 9
6 7 6 6 6 6 7 7 7 7 7 8 7 6 6 6 5 6 7 6 6 5 7 8 8 9 7 7 7 7 8 8 7 6 9 8 9 7 7 8 9 9 9
6 6 6 6 6 6 7 7 7 9 8 7 7 6 6 6 7 8 7 7 7 7 7 7 8 9 7 7 6 7 7 8 7 7 9 9 7 8 8 9 9 10 9
6 6 7 6 7 6 7 7 7 7 8 7 7 8 7 8 8 8 8 8 8 9 10 10 8 12 13 14 12 12 10 10 8 7 7 10 11 11 9 9 10 10 10
6 7 6 6 6 7 7 7 7 7 7 7 7 7 8 8 8 9 9 10 9 10 11 10 12 17 16 13 14 12 11 11 10 9 8 8 8 8 8 11 13 9 10
Wind_Direction
307 289 296 295 296 293 289 284 281 293 292 300 311 320 344 8 15 5 10 26 35 50 31 30 28 20 342 6 2 269 216 213 216 131 112 108 111 124 117 92 96 95 100
307 291 291 296 300 299 294 296 308 304 307 318 326 1 12 17 18 24 21 23 24 37 39 44 35 6 16 21 342 316 227 217 214 160 124 125 112 130 116 117 114 98 95
306 293 306 304 312 304 311 1 343 338 339 5 19 26 25 24 20 25 16 25 26 30 25 21 17 15 13 14 348 327 293 228 195 163 133 125 103 139 130 113 110 102 101
308 306 309 328 4 6 360 1 3 10 24 20 32 27 19 16 17 9 0 15 16 20 29 23 3 12 356 345 348 327 303 246 169 150 138 130 128 125 125 130 118 98 86
310 303 307 327 1 3 12 17 16 32 23 28 29 24 14 17 14 2 353 355 352 12 4 10 358 12 30 42 27 351 350 77 92 126 130 130 130 146 136 138 112 107 86
304 309 355 20 20 24 21 22 21 24 23 24 22 13 1 356 350 0 22 10 5 3 358 7 20 61 70 69 66 59 46 45 81 94 96 114 107 113 124 129 130 137 112
316 25 25 27 38 32 20 19 15 15 11 17 6 347 336 336 353 357 29 30 23 19 16 16 45 51 62 52 60 60 52 50 49 40 89 66 89 67 127 135 138 90 91
20 24 33 43 36 17 10 10 3 349 360 344 346 1 359 351 7 20 24 10 22 35 30 34 54 58 48 68 68 63 53 49 40 42 52 61 91 107 110 125 112 102 101
31 38 36 38 22 5 3 355 353 350 352 4 2 17 20 11 10 23 34 23 35 43 43 44 86 79 50 34 75 74 66 51 54 54 53 50 65 69 114 119 125 139 113
41 47 34 14 357 345 344 346 341 3 6 6 19 15 21 8 10 14 31 14 54 40 43 46 46 67 61 40 62 59 64 48 48 57 50 47 53 56 62 80 131 126 123
44 10 358 350 340 341 342 3 17 39 23 23 26 19 35 24 18 20 24 62 44 68 50 39 34 55 68 63 62 75 79 65 58 58 57 52 57 59 56 60 51 85 105
7 351 354 358 2 1 29 28 18 17 21 17 24 31 26 20 20 26 40 49 44 73 64 56 54 56 59 60 72 76 65 52 50 56 63 57 59 64 65 71 71 67 57
12 8 2 5 16 19 32 25 18 38 48 15 17 36 28 15 18 17 43 47 54 68 71 67 59 57 59 64 56 54 53 62 64 70 71 70 63 70 89 85 79 76 68
23 21 18 29 17 16 16 32 42 46 30 358 34 38 32 31 19 2 31 40 44 54 52 60 62 60 65 58 53 46 60 61 64 69 72 73 76 73 73 75 88 89 80
41 24 28 23 20 15 27 12 12 33 20 16 39 25 42 36 11 21 52 47 54 58 68 60 59 52 50 48 51 54 57 61 69 66 73 78 78 82 75 71 75 83 88
37 26 21 12 2 28 7 21 43 58 53 58 43 22 52 43 47 50 43 44 46 43 61 55 60 55 55 50 54 58 59 67 62 69 71 72 76 81 83 75 80 83 89
41 357 351 30 20 17 13 23 30 46 63 49 34 32 43 43 37 37 37 42 36 34 53 53 59 59 56 59 58 60 66 48 64 66 72 73 76 74 77 79 80 83 78
346 7 14 13 17 38 63 54 46 58 59 37 22 37 17 24 40 35 19 27 55 50 64 65 64 61 73 74 72 51 71 65 62 66 70 67 65 72 75 75 77 89 87
357 6 31 55 60 63 64 69 57 50 51 33 15 18 3 8 33 33 16 56 53 50 40 53 65 79 88 98 81 68 73 70 72 75 71 70 66 77 77 77 78 77 89
19 63 72 71 63 57 50 54 65 64 52 34 34 2 4 33 35 33 9 14 19 21 28 34 35 55 91 93 95 92 80 74 77 78 75 73 72 71 76 80 80 86 81
63 61 71 69 59 51 51 58 59 60 58 54 44 14 6 48 34 26 14 18 23 19 13 13 21 36 45 79 85 86 81 82 83 82 81 78 79 79 78 82 87 84 89
68 65 67 65 61 57 53 54 56 56 50 46 35 29 23 36 30 26 10 25 18 9 352 12 49 54 59 79 89 91 89 88 85 88 90 85 86 87 90 88 90 90 89
83 81 73 65 66 62 60 53 53 52 48 52 44 33 19 25 23 23 26 27 25 5 6 12 34 56 59 69 79 86 90 89 91 97 94 93 90 89 92 89 91 88 83
80 77 80 71 66 65 61 60 55 52 51 44 51 53 41 36 31 29 28 29 33 26 26 29 34 36 41 50 59 70 72 74 73 79 86 93 88 84 85 86 84 88 89
79 76 74 75 75 72 66 59 55 53 52 48 46 42 41 43 39 33 33 38 40 39 35 35 39 46 44 48 54 59 53 54 60 66 81 85 83 83 87 88 90 88 93
79 78 78 77 72 71 70 65 56 50 50 47 45 44 44 45 42 43 41 45 48 46 44 38 44 53 57 57 64 60 58 56 59 55 68 69 74 75 77 83 83 83 83